SCP
0 0 0 0 0 0 0 1 1 1 1 1 0 0 0 0 0 0 0 0 0 0 0 0 0 0 0 0 0 0 0 0 0 0 0 0 0 0 0 0 0 0 0 0
0 0 0 0 0 0 1 1 1 1 1 0 0 0 0 0 0 0 0 0 0 0 0 0 0 0 0 0 0 0 0 0 0 0 0 0 0 0 0 0 0 0 0 0
0 0 0 0 0 0 1 1 1 1 1 0 0 0 0 0 0 0 0 0 0 0 0 0 0 0 0 0 0 0 0 0 0 0 0 0 0 0 0 0 0 0 0 0
0 0 0 0 0 0 3 4 1 0 0 0 0 0 0 0 0 0 0 0 0 0 0 0 0 0 0 0 0 0 0 0 0 0 0 0 0 0 0 0 0 0 0 0
0 0 0 0 0 0 2 1 4 2 0 0 0 0 0 0 0 0 0 0 0 0 0 0 0 0 0 0 0 0 0 0 0 0 0 0 0 0 0 0 0 0 0 0
0 0 0 0 0 0 1 0 2 2 0 0 0 0 0 0 0 0 0 0 0 0 0 0 0 0 0 0 0 0 0 0 0 0 0 0 -0 0 0 0 0 0 0 0
0 0 0 0 0 0 0 0 1 2 0 1 0 0 0 0 0 0 0 0 0 0 0 0 0 0 0 0 0 0 0 0 0 0 0 0 0 0 0 0 0 0 0 0
0 0 0 0 0 0 0 0 0 0 0 0 0 0 0 0 0 0 0 0 0 0 0 0 0 0 0 0 0 0 0 0 0 0 0 0 0 0 0 0 0 0 0 0
0 0 0 0 0 0 0 0 0 0 0 0 0 0 0 0 0 0 0 0 0 0 0 0 0 0 0 0 0 0 0 0 0 0 0 0 0 0 -0 0 0 0 0 0
0 0 0 0 0 0 0 0 0 0 0 0 0 0 0 0 0 0 0 0 0 0 0 0 0 0 0 0 0 0 0 0 0 0 0 0 0 0 0 0 0 0 0 0
0 0 -0 -0 -0 0 0 0 0 0 0 0 0 0 0 0 0 0 0 0 0 0 0 0 0 0 0 0 0 0 0 0 0 0 0 0 0 0 0 0 0 0 0 0
0 0 0 0 -0 -0 0 0 0 0 0 0 0 0 0 0 0 0 0 0 0 0 0 0 0 0 0 0 0 0 0 0 0 0 0 0 0 0 0 0 0 0 0 0
0 0 0 0 0 0 0 0 0 0 0 0 0 0 0 0 0 0 0 0 0 0 0 0 0 0 0 0 0 0 0 0 0 0 0 0 0 0 0 0 0 0 0 0
0 0 0 0 0 0 0 0 0 0 0 0 0 0 0 0 0 0 0 0 0 0 0 0 0 0 0 0 0 0 0 0 0 0 0 0 0 0 0 0 0 0 0 0
0 0 0 0 0 0 0 0 0 0 0 0 0 0 0 0 0 0 0 0 0 0 0 0 0 0 0 0 0 0 0 0 0 0 0 0 0 0 0 0 0 0 0 0
0 0 0 0 0 0 0 0 0 0 0 0 0 0 0 0 0 0 0 0 0 0 0 0 0 0 -0 -0 -0 -0 0 0 0 0 0 0 0 0 0 0 0 0 0 0
0 0 0 0 0 0 0 0 0 0 0 0 0 0 0 0 0 0 0 0 0 0 0 0 0 0 0 0 0 0 0 0 0 0 0 0 0 0 0 0 0 0 0 0
0 0 0 0 0 0 0 0 0 0 0 0 0 0 0 0 0 0 0 0 0 0 0 0 0 0 0 0 0 0 0 0 0 0 0 0 0 0 0 0 0 0 0 0
0 0 0 0 0 0 0 0 0 0 0 0 0 0 0 0 0 0 0 0 0 0 0 0 0 0 0 0 0 0 0 0 0 0 0 0 0 0 0 0 0 0 0 0
0 0 0 0 0 0 0 0 0 0 0 0 0 0 0 0 0 0 0 0 0 0 0 0 0 0 0 -0 -0 -0 0 0 0 0 0 0 0 0 0 0 0 0 0 0
0 0 0 0 0 0 0 0 0 0 0 0 0 0 0 0 0 0 0 0 0 0 0 0 0 0 0 0 0 0 0 0 0 0 0 0 0 0 0 0 0 0 0 0
0 0 0 0 0 0 0 0 0 0 0 0 0 0 0 0 0 0 0 0 0 0 0 0 0 0 0 0 0 0 0 0 0 0 0 0 0 0 0 0 0 0 0 0
0 0 0 0 0 0 0 0 0 0 0 0 0 0 0 0 0 0 0 0 0 0 0 0 0 0 0 0 0 0 0 0 0 0 0 0 0 0 0 0 0 0 0 0
0 0 0 0 0 0 0 0 0 0 0 0 0 0 0 0 0 0 0 0 0 0 0 0 0 0 0 0 0 0 0 0 0 0 0 0 0 0 0 0 0 0 0 0
0 0 -0 0 0 0 0 0 0 0 0 0 0 0 0 0 0 0 0 0 0 0 0 0 0 0 0 0 0 0 0 0 0 0 0 0 0 0 0 0 0 0 0 0
-0 -0 -0 -0 0 0 0 0 0 0 0 0 0 0 0 0 0 0 0 0 0 -0 -0 0 0 0 0 0 0 0 0 0 0 0 0 0 0 0 0 0 0 0 0 0
-0 -0 0 -0 0 0 0 0 0 0 0 0 0 -0 -0 0 -0 -0 -0 -0 -0 0 0 0 0 0 0 0 0 0 0 0 0 0 0 0 0 0 0 0 0 0 0 0
Wind_Speed_500mb
109 133 132 120 122 118 114 86 22 67 84 34 52 44 61 67 64 32 24 10 38 36 34 32 39 34 26 30 24 15 34 14 28 43 34 31 29 37 35 27 29 32 33 30
139 147 124 138 144 136 131 77 29 69 96 31 39 54 62 62 60 40 40 25 28 31 34 24 34 41 27 21 25 14 15 16 25 38 32 34 28 41 41 41 41 52 38 26
139 157 126 153 144 148 126 54 17 36 77 88 57 60 59 65 79 46 56 32 41 35 39 39 22 41 20 13 21 5 6 28 35 30 34 33 39 39 40 42 37 38 43 51
111 132 121 134 142 155 118 52 20 39 32 53 59 53 41 63 66 69 54 46 46 43 44 43 47 38 22 7 12 8 12 41 41 49 52 52 56 57 56 57 52 49 40 59
52 101 139 139 149 157 109 47 31 62 26 65 61 56 63 64 69 55 62 59 52 45 48 48 38 31 31 27 27 18 20 38 39 53 49 53 66 66 60 64 64 70 65 79
47 73 104 141 142 159 88 72 56 68 43 43 44 63 74 65 48 71 76 61 44 51 62 51 47 15 30 30 34 39 35 28 16 39 37 44 57 48 69 71 69 58 67 77
33 56 62 94 112 132 64 83 55 24 13 42 51 54 65 66 66 61 56 75 53 77 22 51 50 31 32 35 43 42 31 34 15 10 8 33 28 33 40 45 57 61 70 63
19 33 48 43 51 43 55 53 49 28 20 19 39 42 50 65 68 55 59 73 103 62 56 6 1 0 5 28 45 53 39 22 8 12 19 45 61 38 27 35 53 45 51 55
18 22 31 34 37 28 37 50 44 17 9 10 29 22 40 30 41 40 54 72 70 69 18 8 18 13 12 18 11 47 49 38 24 7 12 30 24 29 51 56 67 45 56 56
33 26 27 26 33 35 37 28 33 27 13 7 8 5 18 22 14 8 9 33 23 58 17 16 14 15 18 19 23 12 31 28 40 32 21 34 27 35 14 32 22 13 17 27
37 35 35 35 33 31 34 33 29 23 11 11 6 7 2 6 12 15 6 9 8 8 12 9 7 13 16 16 33 42 27 20 21 23 23 50 19 35 55 30 53 57 40 33
36 38 39 39 37 34 25 18 18 22 10 7 10 5 4 15 18 11 6 5 9 10 6 4 6 8 6 25 28 37 35 20 20 30 26 39 32 35 46 56 70 74 67 55
37 36 36 38 39 43 46 37 35 25 12 3 19 12 13 26 17 4 8 8 8 10 15 4 2 7 9 12 28 33 23 33 30 41 49 48 64 66 62 80 60 44 39 25
36 41 45 47 48 48 53 44 48 27 17 6 4 13 21 26 29 29 22 8 14 4 7 3 3 1 5 5 7 5 10 20 17 28 24 32 49 38 38 35 33 31 23 26
37 40 43 46 48 47 54 46 39 38 9 7 7 3 9 9 21 31 25 20 18 11 6 5 5 6 7 5 5 17 12 19 10 5 12 17 12 26 27 21 26 27 24 30
34 36 43 47 48 47 46 11 44 48 28 7 5 5 8 8 13 21 20 18 12 6 3 3 8 9 15 7 9 28 46 47 44 20 18 32 45 43 42 38 32 29 29 32
34 33 39 49 51 50 38 13 14 55 43 9 7 10 5 12 11 11 14 21 10 11 7 9 11 13 13 5 23 45 59 59 52 37 28 35 47 37 34 33 41 42 37 33
35 37 42 48 57 56 37 7 24 56 20 6 3 7 12 17 10 10 8 11 7 7 6 6 5 15 7 11 35 52 56 57 57 61 42 52 60 58 59 51 48 39 37 36
46 51 57 61 42 15 25 23 63 37 12 10 7 10 7 16 8 9 8 6 4 8 7 8 11 12 13 28 36 47 52 50 48 50 42 48 51 52 51 48 43 35 33 27
55 57 17 10 26 48 54 34 15 11 6 7 8 19 9 17 13 10 13 10 5 6 13 8 9 19 53 54 49 54 55 41 37 40 40 45 50 41 39 41 35 24 18 14
33 10 10 58 67 32 6 8 8 8 8 14 14 18 11 13 10 8 12 6 6 7 8 8 8 13 9 8 15 18 20 20 26 33 40 38 41 37 30 11 8 16 21 21
11 39 46 29 9 5 7 7 8 11 10 15 16 17 12 13 7 6 6 7 5 10 6 4 7 9 10 6 9 13 15 14 14 14 14 8 8 3 8 10 15 19 24 28
58 13 10 10 6 6 8 12 7 9 12 18 21 12 11 8 9 6 8 10 11 2 5 7 9 4 8 13 14 12 13 13 11 6 5 5 3 5 14 27 34 33 26 18
5 7 6 6 7 9 4 7 8 12 18 31 29 16 7 9 11 6 8 7 6 8 8 13 6 12 10 11 9 9 11 10 10 16 18 20 21 24 24 26 21 15 16 16
2 3 4 3 6 8 6 8 14 14 24 32 16 8 12 7 7 8 6 6 10 10 9 4 8 6 5 2 3 6 9 15 16 18 22 23 24 24 25 20 17 15 13 10
4 5 6 8 8 5 5 7 15 16 33 26 10 7 7 9 6 10 14 7 10 6 2 7 4 3 2 5 8 12 16 17 18 19 20 20 22 21 20 17 15 12 9 6
3 3 5 7 6 9 14 16 18 27 25 8 7 11 12 6 7 10 9 10 8 9 4 2 3 4 9 13 14 18 23 19 17 18 18 17 18 19 16 16 13 11 8 8
Wind_Direction_500mb
215 208 210 217 201 191 178 175 195 188 176 178 208 218 215 229 216 199 238 285 237 239 231 206 222 218 220 190 202 204 223 253 247 241 234 252 266 276 264 245 262 256 262 258
209 203 208 216 192 185 174 179 167 182 176 193 207 220 221 229 221 215 220 223 232 234 224 225 223 232 231 178 189 210 169 223 255 252 250 244 242 253 255 263 273 266 267 260
193 198 200 201 186 182 172 167 169 170 191 211 208 207 216 220 226 222 217 226 231 225 229 235 237 222 178 196 228 79 154 245 254 255 257 279 271 249 240 254 255 268 256 276
184 193 201 194 185 182 174 176 186 188 187 208 215 211 213 221 216 225 216 227 227 219 230 228 230 235 176 166 217 211 220 247 250 262 271 271 271 269 265 262 250 251 263 264
169 180 197 187 187 184 184 176 178 187 186 200 210 215 215 219 217 210 218 224 220 232 226 223 224 222 235 213 195 220 214 258 266 266 268 272 270 261 259 262 264 266 271 269
145 158 177 189 190 186 193 198 202 183 206 184 195 215 217 221 220 222 226 221 228 224 232 234 246 265 250 243 237 239 235 252 258 266 266 282 269 260 250 253 252 259 260 264
150 163 159 175 181 191 191 194 192 197 198 200 208 212 222 220 222 229 220 225 221 230 244 241 252 262 266 259 261 262 244 237 227 258 146 238 263 248 243 250 247 245 257 269
161 165 161 156 160 170 167 153 171 183 208 200 218 221 217 227 226 237 231 221 225 228 230 85 79 45 216 237 236 236 233 234 231 229 217 268 268 273 255 250 257 248 256 262
185 178 182 169 163 148 168 160 185 145 124 202 215 211 208 213 218 221 227 231 216 223 217 166 190 189 188 204 221 212 228 229 222 185 218 249 276 238 242 246 263 243 249 255
208 188 191 197 184 180 165 139 146 171 101 51 111 222 232 193 200 190 172 184 178 201 197 196 196 208 193 229 210 151 207 212 217 222 241 266 244 266 231 228 280 188 249 263
199 190 187 188 187 189 188 192 203 176 103 91 81 57 351 106 206 209 178 147 196 163 194 183 177 206 200 241 237 226 191 181 212 222 229 255 219 245 228 255 257 270 282 267
198 187 183 184 180 176 179 166 189 202 150 133 207 176 63 73 67 126 56 62 52 51 200 160 173 204 236 231 245 223 242 211 215 199 224 244 258 257 263 272 258 262 268 284
189 183 183 186 179 179 188 175 167 167 141 315 283 252 270 246 269 327 83 51 92 88 71 111 84 290 343 232 253 259 243 244 230 241 241 253 260 263 274 265 275 286 276 263
183 180 182 181 181 182 192 181 184 169 114 136 172 226 223 243 242 256 275 249 252 206 76 111 140 318 61 312 314 301 321 330 284 261 288 323 292 311 325 306 284 295 284 270
183 183 179 174 175 177 196 202 190 188 151 144 135 147 197 233 214 217 215 217 208 166 148 159 203 174 208 209 236 253 234 265 259 280 24 355 327 326 338 334 306 293 291 283
186 185 183 177 168 177 180 143 197 184 187 119 166 138 127 163 178 202 206 213 220 179 199 215 209 210 203 223 253 262 264 266 269 263 269 270 268 281 289 279 285 290 291 287
175 178 177 177 179 184 173 161 167 190 191 199 163 154 98 138 149 153 189 210 200 195 201 232 253 230 204 237 252 263 272 275 276 275 233 239 252 267 276 272 275 279 276 272
155 155 158 161 173 178 177 86 151 161 171 128 205 110 151 166 147 142 175 163 145 213 231 235 249 265 215 250 258 272 275 273 275 272 241 255 272 275 270 269 273 263 267 276
141 143 149 153 158 125 159 155 158 155 138 178 203 181 147 159 139 119 125 123 185 189 226 226 228 239 226 245 265 272 275 276 269 278 269 264 268 271 274 276 274 263 272 275
141 139 108 93 124 135 140 149 139 147 194 210 220 216 127 161 165 169 149 160 227 234 218 180 231 255 258 262 266 275 284 284 282 285 274 277 278 269 275 273 272 267 245 197
126 75 66 126 138 127 113 140 155 141 186 200 216 185 136 168 164 162 207 183 215 247 180 224 235 251 274 18 337 329 326 313 291 278 273 276 273 280 287 271 206 206 214 217
140 127 124 120 122 146 174 139 151 206 178 160 177 172 138 148 190 203 200 213 205 253 116 241 261 265 47 338 334 354 347 337 322 302 288 277 255 300 253 240 214 178 161 140
125 103 136 180 163 174 193 172 189 180 139 166 154 131 108 132 207 221 193 207 230 98 217 233 249 84 27 344 353 7 16 31 45 25 27 14 74 118 148 136 128 119 121 128
164 154 130 225 159 219 207 186 149 90 132 147 140 124 148 161 194 182 213 225 183 235 238 243 237 59 358 1 23 32 43 60 85 104 105 100 96 99 109 111 114 115 130 139
190 200 177 166 92 48 72 78 94 82 129 125 116 128 171 172 163 213 201 193 241 225 257 41 75 35 12 15 90 106 116 107 98 102 103 108 111 119 119 118 124 130 136 137
187 154 141 138 127 130 150 137 122 145 147 151 190 160 186 186 196 184 211 221 229 226 228 97 150 140 119 149 160 144 134 118 112 112 114 115 109 100 103 110 112 113 111 108
215 114 105 143 110 134 166 173 165 170 171 204 183 187 195 161 199 211 213 230 300 70 124 202 194 169 163 149 167 158 137 122 122 119 116 115 110 102 95 90 87 78 62 35
Wind_Speed_850mb
109 133 132 120 122 118 114 86 22 67 84 34 52 44 61 67 64 32 24 10 38 36 34 32 39 34 26 30 24 15 34 14 28 43 34 31 29 37 35 27 29 32 33 30
139 147 124 138 144 136 131 77 29 69 96 31 39 54 62 62 60 40 40 25 28 31 34 24 34 41 27 21 25 14 15 16 25 38 32 34 28 41 41 41 41 52 38 26
139 157 126 153 144 148 126 54 17 36 77 88 57 60 59 65 79 46 56 32 41 35 39 39 22 41 20 13 21 5 6 28 35 30 34 33 39 39 40 42 37 38 43 51
111 132 121 134 142 155 118 52 20 39 32 53 59 53 41 63 66 69 54 46 46 43 44 43 47 38 22 7 12 8 12 41 41 49 52 52 56 57 56 57 52 49 40 59
52 101 139 139 149 157 109 47 31 62 26 65 61 56 63 64 69 55 62 59 52 45 48 48 38 31 31 27 27 18 20 38 39 53 49 53 66 66 60 64 64 70 65 79
47 73 104 141 142 159 88 72 56 68 43 43 44 63 74 65 48 71 76 61 44 51 62 51 47 15 30 30 34 39 35 28 16 39 37 44 57 48 69 71 69 58 67 77
33 56 62 94 112 132 64 83 55 24 13 42 51 54 65 66 66 61 56 75 53 77 22 51 50 31 32 35 43 42 31 34 15 10 8 33 28 33 40 45 57 61 70 63
19 33 48 43 51 43 55 53 49 28 20 19 39 42 50 65 68 55 59 73 103 62 56 6 1 0 5 28 45 53 39 22 8 12 19 45 61 38 27 35 53 45 51 55
18 22 31 34 37 28 37 50 44 17 9 10 29 22 40 30 41 40 54 72 70 69 18 8 18 13 12 18 11 47 49 38 24 7 12 30 24 29 51 56 67 45 56 56
33 26 27 26 33 35 37 28 33 27 13 7 8 5 18 22 14 8 9 33 23 58 17 16 14 15 18 19 23 12 31 28 40 32 21 34 27 35 14 32 22 13 17 27
37 35 35 35 33 31 34 33 29 23 11 11 6 7 2 6 12 15 6 9 8 8 12 9 7 13 16 16 33 42 27 20 21 23 23 50 19 35 55 30 53 57 40 33
36 38 39 39 37 34 25 18 18 22 10 7 10 5 4 15 18 11 6 5 9 10 6 4 6 8 6 25 28 37 35 20 20 30 26 39 32 35 46 56 70 74 67 55
37 36 36 38 39 43 46 37 35 25 12 3 19 12 13 26 17 4 8 8 8 10 15 4 2 7 9 12 28 33 23 33 30 41 49 48 64 66 62 80 60 44 39 25
36 41 45 47 48 48 53 44 48 27 17 6 4 13 21 26 29 29 22 8 14 4 7 3 3 1 5 5 7 5 10 20 17 28 24 32 49 38 38 35 33 31 23 26
37 40 43 46 48 47 54 46 39 38 9 7 7 3 9 9 21 31 25 20 18 11 6 5 5 6 7 5 5 17 12 19 10 5 12 17 12 26 27 21 26 27 24 30
34 36 43 47 48 47 46 11 44 48 28 7 5 5 8 8 13 21 20 18 12 6 3 3 8 9 15 7 9 28 46 47 44 20 18 32 45 43 42 38 32 29 29 32
34 33 39 49 51 50 38 13 14 55 43 9 7 10 5 12 11 11 14 21 10 11 7 9 11 13 13 5 23 45 59 59 52 37 28 35 47 37 34 33 41 42 37 33
35 37 42 48 57 56 37 7 24 56 20 6 3 7 12 17 10 10 8 11 7 7 6 6 5 15 7 11 35 52 56 57 57 61 42 52 60 58 59 51 48 39 37 36
46 51 57 61 42 15 25 23 63 37 12 10 7 10 7 16 8 9 8 6 4 8 7 8 11 12 13 28 36 47 52 50 48 50 42 48 51 52 51 48 43 35 33 27
55 57 17 10 26 48 54 34 15 11 6 7 8 19 9 17 13 10 13 10 5 6 13 8 9 19 53 54 49 54 55 41 37 40 40 45 50 41 39 41 35 24 18 14
33 10 10 58 67 32 6 8 8 8 8 14 14 18 11 13 10 8 12 6 6 7 8 8 8 13 9 8 15 18 20 20 26 33 40 38 41 37 30 11 8 16 21 21
11 39 46 29 9 5 7 7 8 11 10 15 16 17 12 13 7 6 6 7 5 10 6 4 7 9 10 6 9 13 15 14 14 14 14 8 8 3 8 10 15 19 24 28
58 13 10 10 6 6 8 12 7 9 12 18 21 12 11 8 9 6 8 10 11 2 5 7 9 4 8 13 14 12 13 13 11 6 5 5 3 5 14 27 34 33 26 18
5 7 6 6 7 9 4 7 8 12 18 31 29 16 7 9 11 6 8 7 6 8 8 13 6 12 10 11 9 9 11 10 10 16 18 20 21 24 24 26 21 15 16 16
2 3 4 3 6 8 6 8 14 14 24 32 16 8 12 7 7 8 6 6 10 10 9 4 8 6 5 2 3 6 9 15 16 18 22 23 24 24 25 20 17 15 13 10
4 5 6 8 8 5 5 7 15 16 33 26 10 7 7 9 6 10 14 7 10 6 2 7 4 3 2 5 8 12 16 17 18 19 20 20 22 21 20 17 15 12 9 6
3 3 5 7 6 9 14 16 18 27 25 8 7 11 12 6 7 10 9 10 8 9 4 2 3 4 9 13 14 18 23 19 17 18 18 17 18 19 16 16 13 11 8 8
Wind_Direction_850mb
215 208 210 217 201 191 178 175 195 188 176 178 208 218 215 229 216 199 238 285 237 239 231 206 222 218 220 190 202 204 223 253 247 241 234 252 266 276 264 245 262 256 262 258
209 203 208 216 192 185 174 179 167 182 176 193 207 220 221 229 221 215 220 223 232 234 224 225 223 232 231 178 189 210 169 223 255 252 250 244 242 253 255 263 273 266 267 260
193 198 200 201 186 182 172 167 169 170 191 211 208 207 216 220 226 222 217 226 231 225 229 235 237 222 178 196 228 79 154 245 254 255 257 279 271 249 240 254 255 268 256 276
184 193 201 194 185 182 174 176 186 188 187 208 215 211 213 221 216 225 216 227 227 219 230 228 230 235 176 166 217 211 220 247 250 262 271 271 271 269 265 262 250 251 263 264
169 180 197 187 187 184 184 176 178 187 186 200 210 215 215 219 217 210 218 224 220 232 226 223 224 222 235 213 195 220 214 258 266 266 268 272 270 261 259 262 264 266 271 269
145 158 177 189 190 186 193 198 202 183 206 184 195 215 217 221 220 222 226 221 228 224 232 234 246 265 250 243 237 239 235 252 258 266 266 282 269 260 250 253 252 259 260 264
150 163 159 175 181 191 191 194 192 197 198 200 208 212 222 220 222 229 220 225 221 230 244 241 252 262 266 259 261 262 244 237 227 258 146 238 263 248 243 250 247 245 257 269
161 165 161 156 160 170 167 153 171 183 208 200 218 221 217 227 226 237 231 221 225 228 230 85 79 45 216 237 236 236 233 234 231 229 217 268 268 273 255 250 257 248 256 262
185 178 182 169 163 148 168 160 185 145 124 202 215 211 208 213 218 221 227 231 216 223 217 166 190 189 188 204 221 212 228 229 222 185 218 249 276 238 242 246 263 243 249 255
208 188 191 197 184 180 165 139 146 171 101 51 111 222 232 193 200 190 172 184 178 201 197 196 196 208 193 229 210 151 207 212 217 222 241 266 244 266 231 228 280 188 249 263
199 190 187 188 187 189 188 192 203 176 103 91 81 57 351 106 206 209 178 147 196 163 194 183 177 206 200 241 237 226 191 181 212 222 229 255 219 245 228 255 257 270 282 267
198 187 183 184 180 176 179 166 189 202 150 133 207 176 63 73 67 126 56 62 52 51 200 160 173 204 236 231 245 223 242 211 215 199 224 244 258 257 263 272 258 262 268 284
189 183 183 186 179 179 188 175 167 167 141 315 283 252 270 246 269 327 83 51 92 88 71 111 84 290 343 232 253 259 243 244 230 241 241 253 260 263 274 265 275 286 276 263
183 180 182 181 181 182 192 181 184 169 114 136 172 226 223 243 242 256 275 249 252 206 76 111 140 318 61 312 314 301 321 330 284 261 288 323 292 311 325 306 284 295 284 270
183 183 179 174 175 177 196 202 190 188 151 144 135 147 197 233 214 217 215 217 208 166 148 159 203 174 208 209 236 253 234 265 259 280 24 355 327 326 338 334 306 293 291 283
186 185 183 177 168 177 180 143 197 184 187 119 166 138 127 163 178 202 206 213 220 179 199 215 209 210 203 223 253 262 264 266 269 263 269 270 268 281 289 279 285 290 291 287
175 178 177 177 179 184 173 161 167 190 191 199 163 154 98 138 149 153 189 210 200 195 201 232 253 230 204 237 252 263 272 275 276 275 233 239 252 267 276 272 275 279 276 272
155 155 158 161 173 178 177 86 151 161 171 128 205 110 151 166 147 142 175 163 145 213 231 235 249 265 215 250 258 272 275 273 275 272 241 255 272 275 270 269 273 263 267 276
141 143 149 153 158 125 159 155 158 155 138 178 203 181 147 159 139 119 125 123 185 189 226 226 228 239 226 245 265 272 275 276 269 278 269 264 268 271 274 276 274 263 272 275
141 139 108 93 124 135 140 149 139 147 194 210 220 216 127 161 165 169 149 160 227 234 218 180 231 255 258 262 266 275 284 284 282 285 274 277 278 269 275 273 272 267 245 197
126 75 66 126 138 127 113 140 155 141 186 200 216 185 136 168 164 162 207 183 215 247 180 224 235 251 274 18 337 329 326 313 291 278 273 276 273 280 287 271 206 206 214 217
140 127 124 120 122 146 174 139 151 206 178 160 177 172 138 148 190 203 200 213 205 253 116 241 261 265 47 338 334 354 347 337 322 302 288 277 255 300 253 240 214 178 161 140
125 103 136 180 163 174 193 172 189 180 139 166 154 131 108 132 207 221 193 207 230 98 217 233 249 84 27 344 353 7 16 31 45 25 27 14 74 118 148 136 128 119 121 128
164 154 130 225 159 219 207 186 149 90 132 147 140 124 148 161 194 182 213 225 183 235 238 243 237 59 358 1 23 32 43 60 85 104 105 100 96 99 109 111 114 115 130 139
190 200 177 166 92 48 72 78 94 82 129 125 116 128 171 172 163 213 201 193 241 225 257 41 75 35 12 15 90 106 116 107 98 102 103 108 111 119 119 118 124 130 136 137
187 154 141 138 127 130 150 137 122 145 147 151 190 160 186 186 196 184 211 221 229 226 228 97 150 140 119 149 160 144 134 118 112 112 114 115 109 100 103 110 112 113 111 108
215 114 105 143 110 134 166 173 165 170 171 204 183 187 195 161 199 211 213 230 300 70 124 202 194 169 163 149 167 158 137 122 122 119 116 115 110 102 95 90 87 78 62 35